{"data":{"norad_id":58115,"intl_designator":"2023-161U","name":"STARLINK-30580","alt_names":[],"object_type":"PAYLOAD","status":"ACTIVE","operator":null,"country":"US","launch_date":"2023-10-21","launch_site_code":"AFWTR","launch_vehicle":null,"mission":null,"orbit_class":"UNKNOWN","rcs_meters":null,"size_class":null,"mass_kg":null,"dimensions":null,"purposes":["comms"],"wikipedia_slug":null,"has_3d_model":false,"image_url":null,"decayed_at":null,"tle_current":{"epoch":"2026-05-24T18:35:37.461696Z","epoch_age_seconds":101355,"freshness":"FRESH","line1":"1 58115U 23161U   26144.77473914  .00000098  00000+0  15433-4 0  9998","line2":"2 58115  53.1599 171.8896 0001030  90.6782 269.4337 15.30193048146065","mean_motion":15.30193048,"eccentricity":0.000103,"inclination_deg":53.1599,"raan_deg":171.8896,"arg_perigee_deg":90.6782,"mean_anomaly_deg":269.4337,"bstar":1.5433e-5,"rev_number":14606,"period_min":94.105773247507,"perigee_km":474.52992951563,"apogee_km":475.94172431798,"semimajor_km":6853.3728269168,"source":"CELESTRAK","updated_at":"2026-05-25T13:38:18.529782Z"}}}